When you browse on this site, cookies collect data to enhance your experience and personalize the content and advertising you see.
Visit our Privacy Policy to learn more. By continuing to use the site, you agree to this use of cookies and data.
  • în România
  • Lista ţărilor
  • Pe 7 zile
  • Temperatura apei
  • Meteo pe hartă
  • Widget-uri
  • user-avatar
    Intrare

    Meteo pe oră la Świdwin

    Astăzi, 18 Septembrie, Miercuri

    Timp Temperatura Precipitaţii Vânt Presiune Umiditate
    00:00 +7°C° 0.2 mm 6 m/s 747 mmHg 81%
    01:00 +7°C° 0.2 mm 6 m/s 748 mmHg 82%
    02:00 +7°C° 0 mm 6 m/s 748 mmHg 83%
    03:00 +7°C° 0 mm 6 m/s 749 mmHg 83%
    04:00 +7°C° 0 mm 5 m/s 749 mmHg 83%
    05:00 +8°C° 0.1 mm 5 m/s 750 mmHg 82%
    06:00 +8°C° 0.1 mm 5 m/s 751 mmHg 81%
    07:00 +8°C° 0.1 mm 5 m/s 751 mmHg 80%
    08:00 +9°C° 0.2 mm 5 m/s 752 mmHg 75%
    09:00 +11°C° 0.2 mm 6 m/s 752 mmHg 70%
    10:00 +13°C° 0.2 mm 6 m/s 752 mmHg 64%
    11:00 +13°C° 0.3 mm 6 m/s 752 mmHg 64%
    12:00 +12°C° 0.3 mm 7 m/s 753 mmHg 63%
    13:00 +14°C° 0.3 mm 7 m/s 753 mmHg 63%
    14:00 +12°C° 0.1 mm 7 m/s 753 mmHg 63%
    15:00 +12°C° 0.1 mm 7 m/s 753 mmHg 63%
    16:00 +13°C° 0.1 mm 6 m/s 753 mmHg 63%
    17:00 +11°C° 0.1 mm 6 m/s 753 mmHg 70%
    18:00 +9°C° 0.1 mm 5 m/s 753 mmHg 77%
    19:00 +8°C° 0.1 mm 4 m/s 753 mmHg 84%
    20:00 +8°C° 0.1 mm 4 m/s 754 mmHg 84%
    21:00 +8°C° 0.1 mm 4 m/s 754 mmHg 83%
    22:00 +7°C° 0.1 mm 4 m/s 755 mmHg 82%
    23:00 +7°C° 0.1 mm 4 m/s 755 mmHg 85%

    Mâine, 19 Septembrie, Joi

    Timp Temperatura Precipitaţii Vânt Presiune Umiditate
    00:00 +8°C° 0.1 mm 3 m/s 755 mmHg 87%
    01:00 +7°C° 0.1 mm 3 m/s 755 mmHg 90%
    02:00 +7°C° 0 mm 3 m/s 755 mmHg 91%
    03:00 +7°C° 0 mm 3 m/s 755 mmHg 92%
    04:00 +7°C° 0 mm 2 m/s 755 mmHg 92%
    05:00 +7°C° 0 mm 2 m/s 756 mmHg 90%
    06:00 +8°C° 0 mm 3 m/s 756 mmHg 87%
    07:00 +9°C° 0 mm 3 m/s 756 mmHg 85%
    08:00 +10°C° 0.1 mm 3 m/s 757 mmHg 76%
    09:00 +12°C° 0.1 mm 4 m/s 757 mmHg 67%
    10:00 +13°C° 0.1 mm 4 m/s 758 mmHg 58%
    11:00 +14°C° 0 mm 5 m/s 758 mmHg 55%
    12:00 +14°C° 0 mm 5 m/s 758 mmHg 52%
    13:00 +14°C° 0 mm 5 m/s 758 mmHg 49%
    14:00 +14°C° 0 mm 5 m/s 758 mmHg 50%
    15:00 +13°C° 0 mm 5 m/s 758 mmHg 52%
    16:00 +13°C° 0 mm 4 m/s 758 mmHg 54%
    17:00 +12°C° 0 mm 4 m/s 758 mmHg 58%
    18:00 +10°C° 0 mm 3 m/s 758 mmHg 63%
    19:00 +9°C° 0 mm 2 m/s 759 mmHg 67%
    20:00 +9°C° 0 mm 2 m/s 759 mmHg 70%
    21:00 +8°C° 0 mm 2 m/s 759 mmHg 72%
    22:00 +8°C° 0 mm 3 m/s 759 mmHg 74%
    23:00 +8°C° 0 mm 2 m/s 759 mmHg 78%

    Poimâine, 20 Septembrie, Vineri

    Timp Temperatura Precipitaţii Vânt Presiune Umiditate
    00:00 +7°C° 0 mm 2 m/s 759 mmHg 82%
    01:00 +7°C° 0 mm 2 m/s 759 mmHg 87%
    02:00 +7°C° 0.1 mm 2 m/s 759 mmHg 89%
    03:00 +7°C° 0.1 mm 2 m/s 759 mmHg 91%
    04:00 +7°C° 0.1 mm 2 m/s 759 mmHg 93%
    05:00 +7°C° 0.1 mm 2 m/s 759 mmHg 92%
    06:00 +8°C° 0.1 mm 2 m/s 759 mmHg 91%
    07:00 +8°C° 0.1 mm 2 m/s 759 mmHg 90%
    08:00 +10°C° 0.1 mm 2 m/s 760 mmHg 81%
    09:00 +12°C° 0.1 mm 1 m/s 760 mmHg 73%
    10:00 +14°C° 0.1 mm 1 m/s 760 mmHg 64%
    11:00 +15°C° 0.1 mm 1 m/s 760 mmHg 60%
    12:00 +15°C° 0.1 mm 1 m/s 760 mmHg 56%
    13:00 +16°C° 0.1 mm 1 m/s 760 mmHg 53%
    14:00 +16°C° 0.1 mm 1 m/s 760 mmHg 54%
    15:00 +15°C° 0.1 mm 2 m/s 760 mmHg 55%
    16:00 +15°C° 0.1 mm 2 m/s 760 mmHg 56%
    17:00 +14°C° 0 mm 2 m/s 760 mmHg 60%
    18:00 +12°C° 0 mm 1 m/s 760 mmHg 65%
    19:00 +10°C° 0 mm 1 m/s 760 mmHg 70%
    20:00 +10°C° 0 mm 1 m/s 760 mmHg 70%
    21:00 +10°C° 0 mm 1 m/s 760 mmHg 70%
    22:00 +9°C° 0 mm 1 m/s 760 mmHg 69%
    23:00 +8°C° 0 mm 2 m/s 760 mmHg 72%

    21 Septembrie, Sâmbătă

    Timp Temperatura Precipitaţii Vânt Presiune Umiditate
    00:00 +8°C° 0 mm 2 m/s 760 mmHg 74%
    01:00 +8°C° 0 mm 2 m/s 760 mmHg 76%
    02:00 +7°C° 0 mm 2 m/s 760 mmHg 79%
    03:00 +7°C° 0 mm 2 m/s 760 mmHg 82%
    04:00 +7°C° 0 mm 2 m/s 760 mmHg 85%
    05:00 +7°C° 0 mm 2 m/s 760 mmHg 84%
    06:00 +8°C° 0 mm 2 m/s 760 mmHg 84%
    07:00 +8°C° 0 mm 2 m/s 760 mmHg 84%
    08:00 +10°C° 0 mm 2 m/s 760 mmHg 76%
    09:00 +12°C° 0 mm 3 m/s 760 mmHg 68%
    10:00 +14°C° 0 mm 3 m/s 760 mmHg 60%
    11:00 +16°C° 0 mm 3 m/s 760 mmHg 56%
    12:00 +17°C° 0 mm 3 m/s 760 mmHg 53%
    13:00 +18°C° 0 mm 3 m/s 759 mmHg 50%
    14:00 +18°C° 0 mm 3 m/s 759 mmHg 50%
    15:00 +18°C° 0 mm 2 m/s 759 mmHg 51%
    16:00 +18°C° 0 mm 2 m/s 758 mmHg 51%
    17:00 +16°C° 0 mm 2 m/s 758 mmHg 56%
    18:00 +14°C° 0 mm 2 m/s 758 mmHg 61%
    19:00 +13°C° 0 mm 2 m/s 758 mmHg 66%
    20:00 +12°C° 0 mm 2 m/s 757 mmHg 66%
    21:00 +12°C° 0 mm 2 m/s 757 mmHg 66%
    22:00 +10°C° 0 mm 2 m/s 757 mmHg 67%
    23:00 +10°C° 0 mm 2 m/s 757 mmHg 67%

    22 Septembrie, Duminică

    Timp Temperatura Precipitaţii Vânt Presiune Umiditate
    00:00 +10°C° 0 mm 3 m/s 757 mmHg 68%
    01:00 +9°C° 0 mm 3 m/s 756 mmHg 68%
    02:00 +9°C° 0 mm 3 m/s 756 mmHg 70%
    03:00 +9°C° 0 mm 3 m/s 756 mmHg 71%
    04:00 +9°C° 0 mm 3 m/s 755 mmHg 72%
    05:00 +9°C° 0 mm 3 m/s 755 mmHg 71%
    06:00 +9°C° 0 mm 3 m/s 754 mmHg 70%
    07:00 +10°C° 0 mm 4 m/s 754 mmHg 69%
    08:00 +12°C° 0 mm 4 m/s 754 mmHg 64%
    09:00 +14°C° 0 mm 4 m/s 754 mmHg 58%
    10:00 +15°C° 0 mm 5 m/s 754 mmHg 53%
    11:00 +17°C° 0 mm 5 m/s 753 mmHg 50%
    12:00 +19°C° 0 mm 4 m/s 752 mmHg 47%
    13:00 +20°C° 0 mm 4 m/s 752 mmHg 45%
    14:00 +20°C° 0 mm 3 m/s 751 mmHg 47%
    15:00 +20°C° 0 mm 3 m/s 751 mmHg 50%
    16:00 +19°C° 0 mm 2 m/s 750 mmHg 52%
    17:00 +18°C° 0 mm 2 m/s 750 mmHg 54%
    18:00 +17°C° 0 mm 2 m/s 750 mmHg 55%
    19:00 +16°C° 0 mm 2 m/s 749 mmHg 57%
    20:00 +16°C° 0 mm 2 m/s 749 mmHg 57%
    21:00 +16°C° 0 mm 2 m/s 749 mmHg 57%
    22:00 +16°C° 0 mm 2 m/s 749 mmHg 57%
    23:00 +16°C° 0 mm 2 m/s 749 mmHg 59%

    23 Septembrie, Luni

    Timp Temperatura Precipitaţii Vânt Presiune Umiditate
    00:00 +15°C° 0 mm 1 m/s 749 mmHg 61%
    01:00 +15°C° 0 mm 1 m/s 749 mmHg 63%
    02:00 +15°C° 0 mm 1 m/s 748 mmHg 64%
    03:00 +15°C° 0 mm 1 m/s 748 mmHg 64%
    04:00 +15°C° 0 mm 1 m/s 748 mmHg 64%
    05:00 +15°C° 0 mm 2 m/s 748 mmHg 65%
    06:00 +15°C° 0 mm 2 m/s 747 mmHg 66%
    07:00 +15°C° 0 mm 2 m/s 747 mmHg 67%
    08:00 +16°C° 0 mm 2 m/s 747 mmHg 65%
    09:00 +16°C° 0 mm 2 m/s 748 mmHg 64%
    10:00 +17°C° 0 mm 2 m/s 748 mmHg 62%
    11:00 +18°C° 0 mm 1 m/s 748 mmHg 63%
    12:00 +18°C° 0 mm 1 m/s 748 mmHg 64%
    13:00 +18°C° 0 mm 1 m/s 747 mmHg 65%
    14:00 +18°C° 0.2 mm 1 m/s 747 mmHg 70%
    15:00 +16°C° 0.2 mm 2 m/s 747 mmHg 74%
    16:00 +16°C° 0.2 mm 2 m/s 747 mmHg 78%
    17:00 +15°C° 0.4 mm 2 m/s 747 mmHg 80%
    18:00 +14°C° 0.4 mm 3 m/s 747 mmHg 83%
    19:00 +13°C° 0.4 mm 3 m/s 747 mmHg 85%
    20:00 +13°C° 0.8 mm 3 m/s 748 mmHg 88%
    21:00 +13°C° 0.8 mm 3 m/s 748 mmHg 90%
    22:00 +13°C° 0.8 mm 4 m/s 748 mmHg 92%
    23:00 +13°C° 1.3 mm 4 m/s 748 mmHg 93%
    Arată mai mult